Vertical_Velocity
2 -1 -1 0 -1 -2 6 9 6 -6 1 0 2 1 -2 -2 20 0 7 21 13 2 1 3 -3 1 2 -4 -6 -2 -5 -4 -2 -2 -1 -0 -2 -2
-1 5 5 -2 -2 2 6 2 6 9 -8 4 3 1 9 -2 8 5 13 3 7 -2 1 -1 -1 4 2 2 -2 -4 -3 -3 -1 -1 -1 -0 1 3
-1 7 1 5 3 -1 4 4 2 0 -2 7 2 22 2 13 13 6 15 -4 -1 1 -2 2 1 2 -1 -4 -1 -3 -3 -2 -1 -0 0 -1 1 -3
-8 2 -1 -1 1 -1 -3 3 1 6 0 20 43 6 18 -2 -1 1 -6 -1 -2 -4 -1 1 6 -1 3 0 1 1 -4 -2 -0 2 1 2 -1 -1
-5 -2 -7 -6 -5 -6 1 1 5 5 -1 15 -12 -5 -1 0 -1 1 -1 -1 -3 -1 -2 2 0 -1 -2 -2 0 0 -2 -2 -4 -2 -2 -2 -2 -3
-6 -6 -9 -7 -7 -7 3 8 1 1 -1 -1 2 3 1 3 0 2 0 -5 1 1 1 -0 2 -4 -3 0 -3 -3 -1 -3 -4 -4 -4 -4 -5 -4
-5 -7 -7 -5 -7 -2 -2 6 1 -1 -1 6 -1 -2 0 0 -1 0 -1 -1 -4 4 -1 6 -4 -4 -0 -3 -4 -3 -5 -4 -3 -3 -3 -4 -2 -2
-3 -3 -4 -4 -5 -2 -4 -4 1 -2 -2 -2 -1 -1 3 2 0 -3 1 -1 -4 5 -1 6 -5 -1 -4 -5 -3 -3 -5 -4 -3 -3 -3 -0 -1 -1
-2 -2 -4 -3 -3 -2 -2 -1 -2 2 1 1 1 -1 -2 -3 -2 -2 0 -3 0 5 -1 -2 3 0 -4 -4 -3 -8 -7 -3 -3 -2 -0 2 2 -1
-3 -4 -3 -4 -3 -1 0 -2 -3 -2 -1 -2 -3 -1 -1 0 -1 -1 0 -1 -1 6 2 -6 5 -1 -5 -4 -4 -7 -3 -4 -1 -3 -4 1 2 -1
-2 -2 -2 -2 -2 -3 -1 -1 -1 -1 -2 -3 -1 -2 -2 -0 1 2 -0 0 -3 1 11 2 0 3 0 -5 -3 -7 -6 -5 1 -5 -2 2 0 1
-0 -1 -1 -2 -1 -0 -0 -1 -1 -1 -2 -0 -2 1 0 -1 -1 1 2 2 -1 -5 3 4 4 10 14 -6 -7 -11 -11 -6 -3 -5 -2 -1 -1 1
-0 -1 -0 -1 -2 -2 -1 -1 -1 -2 -0 -1 -1 -1 -0 -0 -0 -1 -0 1 2 -3 1 7 -1 -1 1 19 -2 -3 -4 -9 -6 -5 -4 -2 -5 -3
-0 -1 -3 -3 -2 -3 -2 -2 -2 -2 -3 -2 -1 -1 -1 -0 -1 -0 1 2 3 4 3 4 8 0 3 2 7 -4 1 -4 -2 -1 -2 -5 -6 -4
-2 -3 -3 -1 -1 1 1 1 -1 -0 0 0 -0 -1 -1 -0 0 1 1 5 4 2 2 -2 0 3 0 2 13 -6 11 4 -8 0 1 -4 -2 -4
-1 -0 -0 -0 0 -1 -2 -2 -1 -1 -0 -1 0 1 1 -0 0 2 4 5 4 0 1 -0 1 3 3 1 2 3 -3 3 3 -4 2 -1 0 0
-1 -1 -1 -1 -2 -2 -2 -2 -1 -1 -1 -1 -3 -2 -3 -4 -4 0 2 3 2 0 -5 -2 1 2 2 1 3 -5 2 0 -3 2 3 2 -8 -4
-3 -3 -2 -2 -2 -1 -1 -1 -1 -2 -1 -3 -2 -2 -5 -5 -5 -3 -2 -0 -0 -1 -0 -2 -3 1 0 -5 -5 -0 -3 -2 -2 -3 -1 4 7 -5
-2 -2 -2 -2 -3 -2 -2 -3 -2 -1 -2 -3 -4 -5 -3 -5 -5 -5 -6 -4 -2 0 -2 -2 -1 1 4 8 3 -13 2 -4 0 0 -1 2 3 -1
-1 -0 -2 -2 -2 -1 -1 -1 -1 -3 -2 -2 -3 -4 -2 -3 -4 -3 -2 -2 -1 -0 -1 -4 -3 -1 -2 1 11 4 -9 -7 -5 4 2 1 2 1
-2 -2 -0 -1 -0 1 -0 -0 -1 -2 -1 -2 -3 -4 -1 -0 -2 -1 -1 -1 1 1 1 -2 -5 -3 -1 0 4 6 5 -3 -7 1 2 4 6 9
-1 -1 0 1 0 -0 -1 -0 -1 -1 0 0 -2 -2 -1 -1 1 0 -2 -0 -4 -1 1 1 -2 -1 -3 -3 0 2 4 -1 -8 -1 -4 -2 3 11
-1 -2 -1 0 1 -1 0 -0 -0 -2 -0 1 -0 -0 -1 0 1 1 1 -0 0 1 -2 4 -0 -3 -1 -3 -2 1 -0 1 -1 2 -1 -11 -6 -6
Height
5697 5689 5685 5682 5679 5676 5673 5672 5673 5674 5678 5680 5680 5683 5684 5684 5681 5683 5679 5677 5678 5678 5678 5676 5675 5676 5675 5673 5671 5669 5669 5668 5666 5664 5663 5663 5662 5662
5681 5674 5667 5661 5657 5654 5653 5653 5658 5661 5662 5666 5667 5670 5671 5671 5670 5669 5666 5665 5664 5665 5663 5661 5660 5659 5658 5656 5655 5654 5653 5650 5648 5647 5646 5645 5645 5644
5669 5659 5650 5641 5637 5635 5634 5636 5640 5646 5650 5652 5654 5656 5656 5657 5653 5655 5651 5651 5651 5650 5648 5647 5647 5645 5642 5640 5639 5637 5635 5633 5632 5631 5629 5629 5628 5627
5660 5647 5636 5627 5623 5622 5622 5624 5626 5630 5634 5637 5634 5636 5641 5640 5641 5642 5640 5640 5639 5637 5635 5633 5631 5627 5627 5626 5624 5622 5620 5618 5616 5614 5612 5611 5609 5607
5652 5640 5630 5623 5618 5615 5614 5616 5618 5621 5624 5626 5627 5630 5632 5632 5631 5631 5629 5626 5625 5623 5621 5619 5616 5614 5612 5611 5608 5606 5603 5601 5599 5596 5593 5589 5586 5584
5645 5637 5628 5621 5616 5612 5611 5611 5613 5615 5617 5618 5618 5619 5622 5621 5621 5618 5615 5614 5612 5609 5608 5605 5602 5599 5598 5594 5592 5590 5586 5582 5579 5575 5570 5565 5559 5555
5638 5632 5626 5620 5616 5612 5610 5609 5609 5611 5612 5612 5612 5613 5613 5612 5610 5608 5604 5601 5599 5598 5596 5591 5587 5584 5581 5577 5575 5572 5567 5563 5558 5553 5546 5540 5535 5530
5633 5628 5622 5616 5612 5610 5608 5607 5606 5607 5606 5606 5606 5605 5604 5602 5599 5596 5593 5591 5589 5586 5582 5578 5571 5568 5563 5560 5557 5552 5549 5544 5538 5532 5527 5520 5515 5512
5628 5624 5619 5615 5611 5608 5606 5604 5602 5602 5601 5600 5598 5596 5594 5591 5589 5586 5584 5580 5578 5574 5568 5565 5557 5552 5545 5542 5539 5534 5531 5527 5522 5517 5511 5505 5501 5499
5622 5618 5615 5611 5608 5605 5602 5600 5598 5597 5595 5593 5590 5589 5586 5583 5580 5576 5572 5568 5565 5561 5553 5548 5542 5534 5527 5524 5521 5518 5516 5512 5507 5502 5495 5491 5488 5486
5618 5615 5611 5608 5605 5602 5599 5596 5594 5591 5588 5585 5583 5580 5576 5572 5568 5563 5558 5553 5549 5546 5541 5531 5527 5519 5513 5508 5505 5503 5501 5498 5493 5488 5482 5478 5475 5474
5613 5610 5607 5604 5600 5597 5594 5591 5587 5584 5580 5576 5572 5567 5563 5558 5553 5549 5543 5538 5531 5528 5525 5518 5513 5511 5504 5493 5489 5488 5486 5484 5480 5475 5469 5465 5462 5462
5609 5606 5602 5599 5595 5591 5587 5582 5578 5574 5569 5565 5560 5556 5551 5546 5540 5534 5529 5522 5515 5509 5508 5503 5497 5496 5494 5490 5478 5476 5474 5471 5468 5464 5458 5453 5449 5448
5603 5599 5595 5591 5587 5583 5578 5574 5569 5564 5559 5553 5548 5543 5538 5532 5525 5519 5511 5504 5497 5492 5490 5489 5486 5483 5480 5477 5473 5467 5464 5460 5457 5453 5448 5442 5437 5436
5595 5591 5587 5583 5579 5574 5569 5563 5558 5553 5547 5542 5536 5530 5523 5517 5509 5500 5491 5484 5479 5476 5475 5474 5473 5470 5468 5465 5462 5457 5455 5450 5446 5442 5438 5432 5427 5423
5588 5584 5580 5575 5570 5564 5559 5553 5548 5542 5536 5530 5525 5518 5510 5502 5492 5481 5472 5468 5465 5463 5463 5462 5460 5458 5455 5452 5449 5445 5442 5439 5436 5432 5429 5423 5417 5415
5581 5576 5571 5565 5560 5554 5548 5543 5537 5531 5525 5519 5512 5505 5496 5486 5474 5464 5459 5458 5456 5454 5452 5451 5449 5446 5443 5440 5437 5433 5431 5428 5425 5422 5419 5415 5405 5402
5572 5567 5561 5556 5550 5544 5538 5532 5526 5520 5514 5507 5499 5491 5481 5470 5461 5455 5453 5451 5450 5447 5444 5441 5438 5435 5432 5428 5423 5421 5418 5417 5415 5412 5409 5408 5402 5394
5563 5558 5552 5546 5540 5534 5528 5522 5516 5509 5502 5495 5487 5478 5469 5460 5454 5450 5447 5445 5442 5439 5436 5432 5429 5426 5424 5421 5415 5406 5408 5406 5405 5402 5399 5397 5393 5388
5554 5548 5543 5537 5530 5524 5518 5512 5505 5499 5491 5484 5475 5467 5459 5452 5447 5443 5440 5437 5435 5432 5428 5424 5421 5417 5414 5412 5410 5403 5394 5396 5394 5393 5390 5387 5384 5380
5544 5539 5533 5526 5520 5514 5507 5501 5494 5488 5480 5473 5465 5457 5450 5443 5439 5435 5432 5429 5426 5424 5420 5416 5412 5408 5405 5402 5399 5396 5390 5383 5382 5382 5380 5379 5378 5374
5534 5528 5522 5516 5510 5503 5496 5490 5483 5477 5469 5462 5454 5446 5439 5434 5430 5426 5422 5419 5416 5413 5411 5407 5402 5399 5394 5391 5389 5385 5381 5376 5371 5370 5366 5363 5365 5365
5524 5518 5512 5505 5499 5492 5485 5478 5472 5465 5458 5451 5443 5435 5429 5423 5419 5415 5411 5408 5405 5402 5399 5397 5393 5388 5385 5380 5377 5375 5370 5366 5363 5362 5358 5351 5352 5352